Weather in Chernysheno

Russia / Kaluga Oblast     53°50′36″N   35°16′28″E
temp.,
°C
wind,
m/s
gust,
m/s
humid.,
%
clouds,
%
prec.,
mm/h
press.,
hPa
HPBL,
m
27 september, mon
mon2700:00+7nnw4129372 0.0 1017631
03:00+8nnw41192100 0.1 1018675
06:00+8n41092100 0.1 1020727
09:00+9n4991100 0.1 1021673
12:00+11nne587551 0.4 10221070
15:00+10n4883100 1.1 1023848
18:00+9nne498576 0.1 1023696
21:00+8n3887100 0.1 1024550
28 september, tue
tue2800:00+8nne3889100 0.0 1024502
03:00+8n3892100 0.1 1025458
06:00+8nne3893100 0.2 1025542
09:00+7ne4890100 0.5 1027659
12:00+8ene4675100 0.2 10291066
15:00+7ene3682100 0.3 1030864
18:00+6ne3687100 0.1 1032845
21:00+6ene3782100 0.1 1033643
29 september, wed
wed2900:00+6ene257422 0.0 1034196
03:00+2ne22895 0.0 103523
06:00+1nne24955 0.0 103688
09:00+5ne257621 0.0 1036304
12:00+10ene23537 0.0 1036970
15:00+11ne23465 0.0 10351172
18:00+7ne12675 0.0 103510
21:00+4ne1174100 0.0 103510
30 september, thu
thu3000:00+4ene1176100 0.0 103610
03:00+4nne0079100 0.0 103610
06:00+3ne118559 0.0 103610
09:00+7e12717 0.0 1037195
12:00+11ese225715 0.0 10361013
15:00+11ene1158100 0.0 10351061
18:00+9ene2374100 0.0 103575
21:00+8e1173100 0.0 103627
1 october, fri
fri100:00+5sse11855 0.0 103610
03:00+4sse11885 0.0 103710
06:00+3sse11885 0.0 103710
09:00+7sse12705 0.0 1037193
12:00+12s23545 0.0 1036895
15:00+13ssw23504 0.0 10351207
18:00+9s22730 0.0 103411
21:00+6s22835 0.0 103525